When you browse on this site, cookies collect data to enhance your experience and personalize the content and advertising you see.
Visit our Privacy Policy to learn more. By continuing to use the site, you agree to this use of cookies and data.
  • In United Kingdom
  • List of Countries
  • For 7 days
  • Water Temperature
  • Satellite Maps
  • Weather Map
  • Weather Widgets
  • user-avatar
    Login

    Hourly Weather Berat

    Today, 20 April, Saturday

    Time Temperature Precipitation Wind Pressure Humidity
    00:00 +11°C° 0 mm 1 mps 750 mmHg 82%
    01:00 +11°C° 0 mm 1 mps 750 mmHg 78%
    02:00 +11°C° 0 mm 1 mps 750 mmHg 77%
    03:00 +11°C° 0 mm 1 mps 749 mmHg 76%
    04:00 +11°C° 0 mm 1 mps 749 mmHg 75%
    05:00 +13°C° 0 mm 1 mps 749 mmHg 71%
    06:00 +14°C° 0 mm 1 mps 749 mmHg 67%
    07:00 +15°C° 0 mm 1 mps 749 mmHg 63%
    08:00 +18°C° 0 mm 1 mps 749 mmHg 56%
    09:00 +19°C° 0 mm 1 mps 749 mmHg 50%
    10:00 +20°C° 0 mm 2 mps 749 mmHg 43%
    11:00 +20°C° 0 mm 2 mps 749 mmHg 42%
    12:00 +21°C° 0 mm 2 mps 749 mmHg 41%
    13:00 +21°C° 0 mm 3 mps 749 mmHg 40%
    14:00 +21°C° 0 mm 3 mps 749 mmHg 42%
    15:00 +20°C° 0 mm 3 mps 749 mmHg 44%
    16:00 +20°C° 0 mm 3 mps 749 mmHg 46%
    17:00 +18°C° 0 mm 2 mps 749 mmHg 53%
    18:00 +16°C° 0 mm 1 mps 749 mmHg 60%
    19:00 +15°C° 0 mm 1 mps 749 mmHg 68%
    20:00 +14°C° 0 mm 1 mps 750 mmHg 67%
    21:00 +14°C° 0 mm 2 mps 750 mmHg 67%
    22:00 +13°C° 0 mm 2 mps 750 mmHg 66%
    23:00 +13°C° 0 mm 2 mps 750 mmHg 67%

    Tomorrow, 21 April, Sunday

    Time Temperature Precipitation Wind Pressure Humidity
    00:00 +13°C° 0 mm 2 mps 750 mmHg 67%
    01:00 +12°C° 0 mm 2 mps 751 mmHg 67%
    02:00 +12°C° 0 mm 2 mps 750 mmHg 68%
    03:00 +12°C° 0 mm 2 mps 750 mmHg 70%
    04:00 +10°C° 0 mm 2 mps 750 mmHg 72%
    05:00 +12°C° 0 mm 2 mps 750 mmHg 70%
    06:00 +13°C° 0 mm 2 mps 750 mmHg 67%
    07:00 +15°C° 0 mm 1 mps 751 mmHg 65%
    08:00 +16°C° 0 mm 1 mps 750 mmHg 62%
    09:00 +18°C° 0 mm 1 mps 750 mmHg 58%
    10:00 +19°C° 0 mm 1 mps 750 mmHg 55%
    11:00 +19°C° 0 mm 2 mps 750 mmHg 53%
    12:00 +20°C° 0 mm 2 mps 750 mmHg 52%
    13:00 +20°C° 0 mm 3 mps 749 mmHg 50%
    14:00 +20°C° 0.1 mm 3 mps 749 mmHg 55%
    15:00 +19°C° 0.1 mm 3 mps 749 mmHg 61%
    16:00 +19°C° 0.1 mm 3 mps 748 mmHg 66%
    17:00 +17°C° 0.1 mm 3 mps 748 mmHg 74%
    18:00 +15°C° 0.1 mm 2 mps 748 mmHg 82%
    19:00 +14°C° 0.1 mm 1 mps 748 mmHg 91%
    20:00 +13°C° 0 mm 1 mps 748 mmHg 92%
    21:00 +13°C° 0 mm 1 mps 749 mmHg 92%
    22:00 +13°C° 0 mm 1 mps 749 mmHg 93%
    23:00 +12°C° 0 mm 1 mps 748 mmHg 93%

    Day after tomorrow, 22 April, Monday

    Time Temperature Precipitation Wind Pressure Humidity
    00:00 +12°C° 0 mm 1 mps 748 mmHg 92%
    01:00 +12°C° 0 mm 1 mps 748 mmHg 91%
    02:00 +12°C° 0 mm 1 mps 748 mmHg 91%
    03:00 +12°C° 0 mm 1 mps 748 mmHg 91%
    04:00 +11°C° 0 mm 1 mps 747 mmHg 90%
    05:00 +13°C° 0 mm 1 mps 747 mmHg 86%
    06:00 +14°C° 0 mm 1 mps 747 mmHg 81%
    07:00 +15°C° 0 mm 2 mps 747 mmHg 76%
    08:00 +16°C° 0 mm 2 mps 747 mmHg 70%
    09:00 +18°C° 0 mm 2 mps 747 mmHg 63%
    10:00 +19°C° 0 mm 2 mps 747 mmHg 57%
    11:00 +20°C° 0 mm 2 mps 746 mmHg 53%
    12:00 +21°C° 0 mm 3 mps 746 mmHg 49%
    13:00 +22°C° 0 mm 3 mps 746 mmHg 45%
    14:00 +22°C° 0 mm 3 mps 745 mmHg 46%
    15:00 +22°C° 0 mm 3 mps 745 mmHg 48%
    16:00 +23°C° 0 mm 2 mps 745 mmHg 49%
    17:00 +20°C° 0.3 mm 2 mps 744 mmHg 59%
    18:00 +18°C° 0.3 mm 2 mps 744 mmHg 69%
    19:00 +16°C° 0.3 mm 2 mps 744 mmHg 79%
    20:00 +16°C° 0.6 mm 2 mps 744 mmHg 80%
    21:00 +16°C° 0.6 mm 2 mps 744 mmHg 81%
    22:00 +14°C° 0.6 mm 3 mps 745 mmHg 83%
    23:00 +14°C° 0 mm 3 mps 744 mmHg 82%

    23 April, Tuesday

    Time Temperature Precipitation Wind Pressure Humidity
    00:00 +15°C° 0 mm 2 mps 744 mmHg 82%
    01:00 +15°C° 0 mm 2 mps 744 mmHg 81%
    02:00 +13°C° 0 mm 3 mps 744 mmHg 81%
    03:00 +13°C° 0 mm 3 mps 743 mmHg 81%
    04:00 +13°C° 0 mm 3 mps 743 mmHg 81%
    05:00 +14°C° 0 mm 3 mps 743 mmHg 77%
    06:00 +15°C° 0 mm 4 mps 743 mmHg 74%
    07:00 +17°C° 0 mm 4 mps 743 mmHg 70%
    08:00 +19°C° 0 mm 5 mps 744 mmHg 60%
    09:00 +21°C° 0 mm 5 mps 744 mmHg 50%
    10:00 +24°C° 0 mm 6 mps 744 mmHg 40%
    11:00 +24°C° 0 mm 6 mps 744 mmHg 41%
    12:00 +24°C° 0 mm 7 mps 744 mmHg 42%
    13:00 +26°C° 0 mm 7 mps 744 mmHg 42%
    14:00 +24°C° 0 mm 7 mps 744 mmHg 45%
    15:00 +23°C° 0 mm 6 mps 744 mmHg 47%
    16:00 +23°C° 0 mm 6 mps 744 mmHg 50%
    17:00 +21°C° 0 mm 5 mps 745 mmHg 54%
    18:00 +19°C° 0 mm 5 mps 745 mmHg 59%
    19:00 +18°C° 0 mm 4 mps 745 mmHg 63%
    20:00 +17°C° 0 mm 3 mps 746 mmHg 65%
    21:00 +17°C° 0 mm 3 mps 746 mmHg 66%
    22:00 +17°C° 0 mm 3 mps 747 mmHg 67%
    23:00 +16°C° 0 mm 3 mps 747 mmHg 69%

    24 April, Wednesday

    Time Temperature Precipitation Wind Pressure Humidity
    00:00 +16°C° 0 mm 3 mps 747 mmHg 71%
    01:00 +14°C° 0 mm 3 mps 747 mmHg 73%
    02:00 +14°C° 0 mm 3 mps 747 mmHg 73%
    03:00 +14°C° 0 mm 3 mps 747 mmHg 73%
    04:00 +14°C° 0 mm 3 mps 747 mmHg 73%
    05:00 +16°C° 0 mm 3 mps 747 mmHg 70%
    06:00 +17°C° 0 mm 3 mps 747 mmHg 67%
    07:00 +19°C° 0 mm 3 mps 747 mmHg 64%
    08:00 +20°C° 0 mm 3 mps 747 mmHg 61%
    09:00 +21°C° 0 mm 3 mps 747 mmHg 57%
    10:00 +22°C° 0 mm 3 mps 747 mmHg 54%
    11:00 +25°C° 0 mm 3 mps 747 mmHg 48%
    12:00 +27°C° 0 mm 3 mps 747 mmHg 42%
    13:00 +29°C° 0 mm 3 mps 747 mmHg 36%
    14:00 +28°C° 0 mm 3 mps 747 mmHg 37%
    15:00 +28°C° 0 mm 2 mps 747 mmHg 38%
    16:00 +28°C° 0 mm 2 mps 746 mmHg 39%
    17:00 +26°C° 0 mm 2 mps 747 mmHg 45%
    18:00 +24°C° 0 mm 2 mps 747 mmHg 52%
    19:00 +20°C° 0 mm 2 mps 747 mmHg 58%
    20:00 +19°C° 0 mm 2 mps 747 mmHg 62%
    21:00 +19°C° 0 mm 2 mps 747 mmHg 66%
    22:00 +18°C° 0 mm 2 mps 748 mmHg 69%
    23:00 +18°C° 0 mm 2 mps 748 mmHg 71%

    25 April, Thursday

    Time Temperature Precipitation Wind Pressure Humidity
    00:00 +17°C° 0 mm 2 mps 748 mmHg 73%
    01:00 +17°C° 0 mm 2 mps 747 mmHg 75%
    02:00 +17°C° 0 mm 2 mps 747 mmHg 74%
    03:00 +16°C° 0 mm 2 mps 747 mmHg 73%
    04:00 +16°C° 0 mm 3 mps 747 mmHg 73%
    05:00 +18°C° 0 mm 2 mps 747 mmHg 69%
    06:00 +19°C° 0 mm 2 mps 748 mmHg 65%
    07:00 +20°C° 0 mm 2 mps 748 mmHg 61%
    08:00 +23°C° 0 mm 2 mps 748 mmHg 54%
    09:00 +26°C° 0 mm 2 mps 748 mmHg 47%
    10:00 +28°C° 0 mm 2 mps 748 mmHg 39%
    11:00 +29°C° 0 mm 3 mps 747 mmHg 38%
    12:00 +30°C° 0 mm 3 mps 747 mmHg 36%
    13:00 +30°C° 0 mm 3 mps 747 mmHg 34%
    14:00 +29°C° 0 mm 2 mps 746 mmHg 39%
    15:00 +28°C° 0 mm 2 mps 746 mmHg 43%
    16:00 +27°C° 0 mm 2 mps 746 mmHg 47%
    17:00 +25°C° 0 mm 2 mps 745 mmHg 52%
    18:00 +24°C° 0 mm 2 mps 745 mmHg 57%
    19:00 +22°C° 0 mm 1 mps 745 mmHg 62%
    20:00 +22°C° 0 mm 1 mps 745 mmHg 61%
    21:00 +22°C° 0 mm 1 mps 746 mmHg 59%
    22:00 +22°C° 0 mm 1 mps 746 mmHg 58%
    23:00 +21°C° 0.1 mm 1 mps 746 mmHg 59%
    Show more